,UTC,Amb_RH,Amb_Temp,WindSpeed,O3_PPB,PDR_Conc,WindDirection
1291,5/29/15 7:00,100,20.47333333,0.458333333,20.04666667,9.498333333,151.3
1292,5/29/15 8:00,100,19.91833333,0.276666667,17.37,9.152166667,134.0833333
1293,5/29/15 9:00,100,19.43166667,0.446666667,17.60833333,8.848666667,125.1833333
1294,5/29/15 10:00,100,19.27666667,0.623333333,17.235,8.906166667,165.9833333
1295,5/29/15 11:00,99.44166667,20.51833333,0.725,19.68,8.6455,178.4333333
1296,5/29/15 12:00,82.52833333,22.42,1.286666667,23.455,8.5535,210.0333333
1297,5/29/15 13:00,70.03833333,24.23,1.146666667,24.735,7.917166667,210.2166667
1298,5/29/15 14:00,59.98474576,26.56271186,0.855932203,28.17966102,7.650508475,202.8813559
1299,5/29/15 15:00,55.39333333,28.325,1.211666667,33.22333333,7.986,196.9
1300,5/29/15 16:00,53.74833333,29.16833333,0.968333333,40.51833333,8.667333333,179.5666667
1301,5/29/15 17:00,52.81166667,29.68,0.81,47.15333333,8.664,146.5333333
1302,5/29/15 18:00,49.15833333,30.71166667,1.06,47.99833333,8.5845,144
1303,5/29/15 19:00,44.77166667,31.775,1.66,41.79333333,8.073,151.1833333
1304,5/29/15 20:00,41.605,32.44333333,1.646666667,39.91166667,7.246833333,160.6166667
1305,5/29/15 21:00,39.83934426,32.0295082,1.416393443,45.63442623,7.099836066,151.7868852
1306,5/29/15 22:00,34.75254237,31.02542373,1.501694915,53.54237288,7.238983051,151.0677966
1307,5/29/15 23:00,39.16166667,29.10833333,0.756666667,52.89166667,6.667333333,119.25
1308,5/30/15 0:00,57.12666667,24.51333333,0.295,40.86333333,6.474666667,49.78333333
1309,5/30/15 1:00,68.6442623,22.00327869,0.116393443,19.78360656,7.218688525,43.75409836
1310,5/30/15 2:00,75.35423729,20.89491525,0.479661017,8.693220339,7.573050847,88.76271186
1311,5/30/15 3:00,73.08666667,21.61,0.61,18.57166667,7.2435,152.85
1312,5/30/15 4:00,74.455,22.47333333,0.646666667,29.74166667,6.014333333,147.3166667
1313,5/30/15 5:00,76.50833333,22.41666667,0.841666667,27.52833333,5.2725,165.8166667
1314,5/30/15 6:00,80.955,21.79,0.781666667,24.935,5.054666667,140.6
1315,5/30/15 7:00,88.05333333,20.98333333,0.316666667,20.52666667,4.889333333,171.6666667
1316,5/30/15 8:00,100,19.50833333,0.061666667,11.81166667,5.096333333,88.56666667
1317,5/30/15 9:00,100,19.27,0.333333333,11.46101695,4.8355,86.2
1318,5/30/15 10:00,100,20.03333333,0.64,14.69322034,5.016833333,136.3
1319,5/30/15 11:00,98.60166667,22.02166667,0.831666667,17.55423729,5.573833333,171.4166667
1320,5/30/15 12:00,81.42666667,23.83166667,1.3,19.63728814,6.258333333,202.7166667
1321,5/30/15 13:00,73.62,24.81,1.421666667,19.0440678,6.103,213.7833333
1322,5/30/15 14:00,64.03833333,26.64666667,1.46,16.71355932,5.642333333,204.1333333
1323,5/30/15 15:00,58.06610169,27.76779661,1.542372881,18.6440678,5.768135593,191.3728814
1324,5/30/15 16:00,55.68305085,28.88135593,0.993220339,22.14137931,6.148135593,191.3559322
1325,5/30/15 17:00,55.70333333,28.66833333,1.065,24.705,6.1835,222.1666667
1326,5/30/15 18:00,51.335,30.11333333,1.096666667,26.36333333,6.035166667,214.3
1327,5/30/15 19:00,45.49666667,31.81166667,1.171666667,29.68813559,6.225833333,141
1328,5/30/15 20:00,48.23833333,30.92,0.653333333,31.16,6.185666667,125.0666667
1329,5/30/15 21:00,44.73833333,30.98333333,1.341666667,32.40666667,5.658333333,170.4333333
1330,5/30/15 22:00,42.46833333,31.53833333,1.313333333,33.41833333,5.917833333,163.75
1331,5/30/15 23:00,46.95,29.94,1.183333333,31.19666667,5.908333333,200.2833333
1332,5/31/15 0:00,54.52,27.73833333,0.565,28.9,6.1535,163.75
1333,5/31/15 1:00,60.08813559,26.01186441,0.894915254,28.13559322,7.426949153,159.220339
1334,5/31/15 2:00,63.69344262,25.85409836,1.619672131,30.09666667,8.887540984,177.7868852
1335,5/31/15 3:00,69.05932203,24.95932203,1.776271186,27.52372881,8.775932203,171.8983051
1336,5/31/15 4:00,74.1027027,23.94594595,1.259459459,24.24324324,8.699722222,174.8918919
1337,5/31/15 5:00,76.47666667,23.43333333,1.146666667,22.82333333,14.24716667,179.2166667
1338,5/31/15 6:00,79.595,22.705,1.048333333,20.68333333,8.703166667,170.6166667
1339,5/31/15 7:00,82.75084746,21.96949153,0.766101695,18.98474576,8.738813559,180.2033898
1340,5/31/15 8:00,83.77166667,21.60833333,0.905,17.99,8.983666667,174.4833333
1341,5/31/15 9:00,85.58135593,21.19661017,0.813559322,16.94067797,10.0040678,181.4576271
1342,5/31/15 10:00,86.72033898,21.00847458,0.774576271,15.68135593,12.87118644,184.220339
1343,5/31/15 11:00,85.87833333,21.36,1.056666667,15.23333333,14.88016667,192.1833333
1344,5/31/15 12:00,78.09333333,23.26833333,1.625,18.28666667,11.18916667,209.2666667
1345,5/31/15 13:00,69.035,24.975,1.468333333,17.40666667,9.279333333,228.5166667
1346,5/31/15 14:00,61.755,26.585,1.636666667,15.93333333,7.605166667,197.4666667
1347,5/31/15 15:00,55.6,28.03050847,1.840677966,15.2440678,6.926949153,195.6101695
1348,5/31/15 16:00,49.24833333,29.35333333,1.615,16.9,7.980166667,207.7
1349,5/31/15 17:00,47.13833333,30.465,2.056666667,21.115,6.971,205.0833333
1350,5/31/15 18:00,44.65833333,31.41666667,1.715,23.23666667,7.422,169.6166667
1351,5/31/15 19:00,41.005,31.68833333,2.16,23.79,8.411333333,198.0833333
1352,5/31/15 20:00,40.55081967,32.26721311,1.801639344,27.38688525,22.31229508,183.2622951
1353,5/31/15 21:00,40.07666667,32.05,2.076666667,30.93833333,6.684,188.1666667
1354,5/31/15 22:00,41.76101695,31.43898305,1.73220339,33.10677966,7.175254237,182.8644068
1355,5/31/15 23:00,45.045,30.07166667,1.046666667,35.22666667,5.757,175.25
1356,6/1/15 0:00,49.04166667,28.47666667,0.658333333,34.4,5.699833333,157.1166667
1357,6/1/15 1:00,56.01,26.35166667,0.245,32.615,5.6075,119.6333333
1358,6/1/15 2:00,60.89833333,25.825,1.088333333,31.065,5.706,147.25
1359,6/1/15 3:00,66.21166667,25.68166667,1.591666667,29.725,5.189,175.35
1360,6/1/15 4:00,69.655,24.79,1.376666667,27.06,5.119666667,176.6833333
1361,6/1/15 5:00,73.89661017,23.86949153,1.389830508,25.54915254,5.450338983,183.8135593
1362,6/1/15 6:00,77.555,23.13666667,1.031666667,24.1,5.4155,189.2
1363,6/1/15 7:00,79.99666667,22.80166667,0.973333333,22.86833333,5.407166667,176.4576271
1364,6/1/15 8:00,80.92666667,22.64833333,1.231666667,21.66166667,5.563833333,181.1
1365,6/1/15 9:00,82.84333333,22.255,1.076666667,20.555,5.558166667,174.6833333
1366,6/1/15 10:00,84.89,21.97333333,0.916666667,18.44166667,10.81220339,175.8
1367,6/1/15 11:00,82.335,22.69833333,1.55,17.73666667,6.1865,188.1166667
1368,6/1/15 12:00,76.97166667,24.105,1.806666667,19.985,6.486833333,200.55
1369,6/1/15 13:00,69.99,26.095,1.721666667,22.75666667,7.01,212.9
1370,6/1/15 14:00,62.38166667,27.795,1.91,23.6,6.744833333,211.6666667
1371,6/1/15 15:00,54.875,29.45,2.136666667,25.025,6.172166667,217.1833333
1372,6/1/15 16:00,51.14333333,30.675,1.976666667,27.155,6.099666667,212.5833333
1373,6/1/15 17:00,47.105,31.84333333,2.256666667,28.69833333,6.214833333,206.0833333
1374,6/1/15 18:00,45.07166667,32.76666667,1.92,28.86,13.37466667,205.3666667
1375,6/1/15 19:00,47.92666667,31.71,2.085,31.52,7.198166667,182.0166667
1376,6/1/15 20:00,47.86166667,32.02,2.291666667,36.22166667,7.632666667,183.0316667
1377,6/1/15 21:00,53.70508475,30.7559322,1.979661017,39.02033898,8.061694915,183.3559322
1378,6/1/15 22:00,72.09836066,26.4442623,2.691803279,38.47213115,8.355245902,201.6557377
1379,6/1/15 23:00,100,22.42542373,0.625423729,34.99322034,6.638135593,237.4745763
1380,6/2/15 0:00,100,21.82833333,0.291666667,24.255,6.632833333,99.73333333
1381,6/2/15 1:00,100,21.39,0.256666667,19.96166667,6.0055,95
1382,6/2/15 2:00,100,21.375,0.37,18.02,11.51666667,132.4333333
1383,6/2/15 3:00,100,21.4852459,0.801639344,16.98360656,6.264590164,180.2459016
1384,6/2/15 4:00,100,21.08474576,0.491525424,13.12372881,6.499491525,162.0169492
1385,6/2/15 5:00,100,20.98,0.431666667,10.49333333,6.2775,109.0666667
1386,6/2/15 6:00,100,20.76833333,0.51,5.816666667,6.552833333,108.4
1387,6/2/15 7:00,100,20.845,0.445,9.045,6.348666667,149.8166667
1388,6/2/15 8:00,100,20.98666667,0.638333333,10.75333333,6.947333333,167.5333333
1389,6/2/15 9:00,100,20.59333333,0.36,7.655,7.4425,161.0166667
1390,6/2/15 10:00,100,20.46666667,0.526666667,9.498333333,7.794,170.45
1391,6/2/15 11:00,100,20.93833333,0.77,8.821666667,8.507666667,205.9
1392,6/2/15 12:00,100,21.14833333,1.223333333,8.726666667,9.047333333,210.7666667
1393,6/2/15 13:00,100,21.70333333,1.365,11.16666667,8.810833333,238.0833333
1394,6/2/15 14:00,100,21.16271186,1.186440678,12.09491525,8.733559322,199.7288136
1395,6/2/15 15:00,100,22.00333333,0.663333333,17.085,9.074,172.0333333
1396,6/2/15 16:00,81.63666667,24.6,0.748333333,25.40833333,7.294,175.0666667
1397,6/2/15 17:00,68.16,26.07,0.88,28.81333333,6.812333333,190.2833333
1398,6/2/15 18:00,60.24666667,27.85833333,1.021666667,30.25166667,6.5745,215.5833333
1399,6/2/15 19:00,57.76949153,28.4559322,1.36779661,30.83050847,6.337288136,174.7118644
1400,6/2/15 20:00,58.35166667,28.19333333,1.286666667,35.39,6.7385,158.9
1401,6/2/15 21:00,63.14333333,27.20333333,0.766666667,37.00833333,7.1655,141.6
1402,6/2/15 22:00,69.76333333,25.68166667,0.436666667,34.64333333,6.716833333,125.2166667
1403,6/2/15 23:00,76.25932203,24.59491525,0.303389831,30.79152542,6.816101695,117.6610169
1404,6/3/15 0:00,96.295,22.97833333,1.2,31.83666667,7.601666667,162.3666667
1405,6/3/15 1:00,100,21.63606557,0.654098361,27.38688525,6.838688525,170.6393443
1406,6/3/15 2:00,100,21.17627119,1.577966102,29.2559322,6.386440678,217.8135593
1407,6/3/15 3:00,100,20.46071429,0.557142857,30.37142857,4.869107143,169.8035714
1408,6/3/15 4:00,100,20.10508475,0.640677966,24.88474576,4.658474576,126.2372881
1409,6/3/15 5:00,100,20.015,0.616666667,20.035,4.889333333,177.3666667
1410,6/3/15 6:00,100,19.62,0.585,17.03666667,4.938833333,135.8666667
1411,6/3/15 7:00,100,19.42,0.87,13.80333333,4.407333333,142.8666667
1412,6/3/15 8:00,100,18.435,1.275,7.618333333,3.536833333,134.0166667
1413,6/3/15 9:00,100,18.01666667,1.218333333,7.278333333,3.334333333,151.3166667
1414,6/3/15 10:00,100,17.85166667,0.966666667,6.84,3.424833333,140.4
1415,6/3/15 11:00,100,17.49333333,1.251666667,6.921666667,4.095666667,149.6
1416,6/3/15 12:00,100,17.415,1.468333333,9.058333333,3.562666667,161.5833333
1417,6/3/15 13:00,100,17.68474576,1.437288136,10.89830508,3.52,123.1694915
1418,6/3/15 14:00,100,17.985,1.438333333,12.7,3.4905,132.6166667
1419,6/3/15 15:00,99.955,18.87,1.503333333,13.265,3.789,122.1833333
1420,6/3/15 16:00,99.775,19.30666667,1.38,11.85833333,3.728,121.15
1421,6/3/15 17:00,97.365,19.345,1.348333333,12.38333333,3.627666667,128.8166667
1422,6/3/15 18:00,100,19.18333333,1.366666667,13.15333333,4.358666667,129.7
1423,6/3/15 19:00,100,19.22295082,1.245901639,14.48196721,4.964918033,167.557377
1424,6/3/15 20:00,100,18.94067797,1.2,14.00847458,4.164745763,163.8644068
1425,6/3/15 21:00,100,18.86885246,1.562295082,14.85409836,4.530819672,167.2459016
1426,6/3/15 22:00,100,18.62333333,1.495,15.425,4.502666667,115.2666667
1427,6/3/15 23:00,100,18.35254237,1.011864407,13.84237288,5.13440678,146.8305085
1428,6/4/15 0:00,100,18,1.021311475,12.4,5.612295082,133.3114754
1429,6/4/15 1:00,100,17.95166667,1.118333333,13.18666667,6.565666667,139.4666667
1430,6/4/15 2:00,100,18.0220339,0.972881356,12.15254237,5.800338983,182.0847458
1431,6/4/15 3:00,100,17.8,1.143333333,10.8,5.571833333,149.7166667
1432,6/4/15 4:00,100,17.48666667,1.273333333,11.20333333,5.067833333,178.3333333
1433,6/4/15 5:00,100,17.255,1.2,10.68333333,4.476666667,146.85
1434,6/4/15 6:00,100,17.03,1.08,10.43666667,4.121166667,162.0166667
1435,6/4/15 7:00,100,16.84333333,1.026666667,10.065,3.477833333,157.3666667
1436,6/4/15 8:00,100,16.755,1.026666667,9.835,2.731666667,161.5166667
1437,6/4/15 9:00,100,16.6,0.733333333,8.821666667,2.45,202.9666667
1438,6/4/15 10:00,100,16.32333333,0.836666667,7.315,2.4085,184.7333333
1439,6/4/15 11:00,100,16.34833333,1.096666667,7.953333333,2.227833333,153.2833333
1440,6/4/15 12:00,100,16.34,1.196666667,9.031666667,2.109333333,134.5666667
1441,6/4/15 13:00,100,16.715,1.361666667,10.27666667,2.013833333,196.3666667
1442,6/4/15 14:00,100,17.19166667,1.28,10.55333333,2.352166667,190.8666667
1443,6/4/15 15:00,100,17.63333333,1.521666667,10.93666667,2.618666667,237.0166667
1444,6/4/15 16:00,100,17.94,1.8,10.9,2.947333333,212.9166667
1445,6/4/15 17:00,98.725,18.525,1.961666667,12.05333333,3.485,191.1333333
1446,6/4/15 18:00,91.16666667,19.21666667,1.46,11.71333333,3.8705,159.65
1447,6/4/15 19:00,91.04833333,19.575,1.398333333,12.79,4.7875,190.5166667
1448,6/4/15 20:00,90.11,19.87,1.313333333,13.76666667,5.256333333,155.3166667
1449,6/4/15 21:00,95.46557377,19.63442623,1.332786885,13.25245902,5.361311475,135.7704918
1450,6/4/15 22:00,100,18.95423729,1.218644068,13.95254237,6.027966102,171.4576271
1451,6/4/15 23:00,100,18.52166667,1.51,13.655,5.509166667,200.85
1452,6/5/15 0:00,100,18.01,1.261666667,14.95833333,5.041833333,158.6333333
1453,6/5/15 1:00,100,17.65666667,0.973333333,14.525,4.853,195.15
1454,6/5/15 2:00,100,17.47333333,0.888333333,12.69166667,4.980666667,222.4333333
1455,6/5/15 3:00,100,17.53166667,1.005,12.755,5.012,255.4333333
1456,6/5/15 4:00,100,17.475,1.073333333,13.63166667,4.78,204.8833333
1457,6/5/15 5:00,100,17.46,1.005,12.955,3.173833333,138.1333333
1458,6/5/15 6:00,100,17.10666667,0.848333333,12.275,2.764,195.6
1459,6/5/15 7:00,100,16.87966102,1.066101695,11.23559322,2.59559322,247.9661017
1460,6/5/15 8:00,100,16.81,1.075,10.85166667,2.47,276.55
1461,6/5/15 9:00,100,16.88833333,1.081666667,11.04333333,2.351166667,242.8666667
1462,6/5/15 10:00,100,17.05166667,1.251666667,10.74,2.246666667,243.7333333
1463,6/5/15 11:00,100,17.61666667,1.253333333,9.941666667,2.3335,247.45
1464,6/5/15 12:00,99.44666667,18.09333333,1.28,10.39166667,2.656,182.3166667
1465,6/5/15 13:00,88.77166667,18.805,1.333333333,10.655,2.659166667,169.6166667
1466,6/5/15 14:00,77.34166667,20.105,1.615,12.825,3.128666667,246.9666667
1467,6/5/15 15:00,72.55666667,21.345,1.565,15.14166667,4.3905,160.7166667
1468,6/5/15 16:00,69.17166667,22.48833333,1.521666667,17.91166667,4.939333333,173.2333333
1469,6/5/15 17:00,64.72,23.79666667,1.311666667,22.37,4.296,236.3833333
1470,6/5/15 18:00,62.20166667,24.575,1.416666667,25.125,5.819833333,189.15
1471,6/5/15 19:00,60.625,25.265,1.061666667,28.97666667,5.929,174.2833333
1472,6/5/15 20:00,58.98833333,25.935,1.105,32.37666667,5.802,172.2833333
1473,6/5/15 21:00,61.735,25.19333333,1.34,30.3,5.746833333,124.65
1474,6/5/15 22:00,66.75833333,24.31666667,0.948333333,28.265,5.25,136.35
1475,6/5/15 23:00,69.925,23.645,0.473333333,26.07833333,5.275333333,101.25
1476,6/6/15 0:00,78.135,21.72333333,0.291666667,21.25166667,5.767,88.01666667
1477,6/6/15 1:00,91.22333333,19.91333333,0.183333333,14.61833333,6.410333333,30.48333333
1478,6/6/15 2:00,100,19.00847458,0.179661017,9.672881356,6.736779661,36.20338983
1479,6/6/15 3:00,100,18.51639344,0.1,6.581967213,6.791311475,97.86885246
1480,6/6/15 4:00,100,18.24915254,0.045762712,4.933898305,7.260508475,87.3220339
1481,6/6/15 5:00,100,17.6779661,0.106779661,4.433898305,7.754067797,74.86440678
1482,6/6/15 6:00,100,17.36833333,0.113333333,3.528333333,7.581833333,153.35
1483,6/6/15 7:00,100,17.08813559,0.286440678,3.545762712,7.37440678,103.1864407
1484,6/6/15 8:00,100,16.86,0.161666667,3.183333333,6.868333333,100.15
1485,6/6/15 9:00,100,17.08166667,0.12,4.16,9.934166667,223.4166667
1486,6/6/15 10:00,100,16.92166667,0.155,3.226666667,9.781833333,83.8
1487,6/6/15 11:00,100,18.37457627,0.110169492,6.518644068,8.484576271,98.18644068
1488,6/6/15 12:00,85.80333333,21.86,0.801666667,14.09,7.671166667,249.5666667
1489,6/6/15 13:00,69.445,25.005,1.111666667,24.97666667,7.2295,261.1333333
1490,6/6/15 14:00,58.63166667,27.37166667,1.77,31.62833333,8.8975,197.9333333
1491,6/6/15 15:00,52.07666667,28.91333333,1.753333333,38.365,10.08316667,252.0666667
1492,6/6/15 16:00,46.305,29.96666667,1.871666667,45.38833333,10.33566667,220.2833333
1493,6/6/15 17:00,44.31833333,30.57833333,1.918333333,51.805,9.614,154.6166667
1494,6/6/15 18:00,43.99166667,30.27833333,1.875,53.12666667,8.3905,138.7666667
1495,6/6/15 19:00,41.45166667,31.04,2.05,52.40333333,8.356,169.8666667
1496,6/6/15 20:00,40.915,31.15666667,1.333333333,51.22166667,8.486,149.5166667
1497,6/6/15 21:00,40.19322034,31.07288136,1.693220339,54.80344828,8.640344828,139.3389831
1498,6/6/15 22:00,45.18333333,30.205,1.376666667,55.51,8.740833333,151.7
1499,6/6/15 23:00,48.72,28.78333333,0.986666667,53.36,8.3255,127.2166667
1500,6/7/15 0:00,55.37666667,27.08166667,0.565,48.97,8.106833333,83.38333333
1501,6/7/15 1:00,64.61694915,24.61016949,0.272881356,43.01355932,8.942881356,94.77966102
1502,6/7/15 2:00,70.265,23.34,0.108333333,40.63,9.398833333,109.2333333
1503,6/7/15 3:00,77.82833333,21.88166667,0.435,28.395,10.23216667,84.58333333
1504,6/7/15 4:00,80.39333333,21.45666667,0.276666667,35.4,9.821833333,116.7333333
1505,6/7/15 5:00,80.7559322,20.98474576,0.401694915,37.47457627,8.700508475,182.0847458
1506,6/7/15 6:00,85.30333333,20.03333333,0.526666667,33.95166667,8.237333333,144.6666667
1507,6/7/15 7:00,89.96166667,19.31166667,0.423333333,36.89166667,7.2665,164.6166667
1508,6/7/15 8:00,100,18.75666667,0.633333333,34.98,7.1985,114.05
1509,6/7/15 9:00,100,18.75333333,0.691666667,32.72,8.6215,113.55
1510,6/7/15 10:00,100,18.67333333,0.626666667,30.45833333,8.860833333,121.2166667
1511,6/7/15 11:00,99.98,19.28666667,0.638333333,30.80666667,7.853166667,126.3166667
1512,6/7/15 12:00,83.33333333,21.08666667,0.648333333,29.94333333,7.126,148.2
1513,6/7/15 13:00,70.57,23.12833333,0.923333333,30.22166667,7.081833333,145
1514,6/7/15 14:00,56.595,25.74666667,0.975,32.26666667,5.237333333,136.7666667
1515,6/7/15 15:00,46.45,27.61333333,1.33,35.70333333,5.048166667,150.6166667
1516,6/7/15 16:00,43.095,28.62,1.43,40.94833333,5.512,141.0833333
1517,6/7/15 17:00,41.16833333,29.35333333,1.141666667,47.24833333,5.851666667,145.1833333
1518,6/7/15 18:00,39.14833333,30.25666667,1.208333333,50.975,6.399666667,143.4666667
1519,6/7/15 19:00,37.11355932,31.19322034,1.186440678,52.24745763,6.875932203,137.220339
1520,6/7/15 20:00,37.87,31.08,1.265,53.31333333,7.129333333,146.2833333
1521,6/7/15 21:00,37.83666667,30.87833333,1.34,53.745,7.478666667,164
1522,6/7/15 22:00,41.53770492,29.90163934,1.014754098,54.95081967,7.565409836,135.295082
1523,6/7/15 23:00,48.09491525,28.33389831,1.052542373,54.93220339,7.708983051,151.3050847
1524,6/8/15 0:00,53.43333333,26.68166667,1.098333333,54.305,7.790833333,150
1525,6/8/15 1:00,58.145,25.28333333,1.23,51.23666667,8.031833333,153.3666667
1526,6/8/15 2:00,61.04,24.33166667,1.011666667,46.28333333,7.924666667,150.6166667
1527,6/8/15 3:00,62.65901639,23.74262295,1.547540984,43.8,7.898852459,148.3278689
1528,6/8/15 4:00,68.32881356,22.90847458,1.328813559,43.03220339,7.635254237,167.5084746
1529,6/8/15 5:00,71.70333333,22.34,1.475,45.65166667,7.107833333,172.9333333
1530,6/8/15 6:00,75.08833333,21.66333333,1.305,45.68333333,6.8975,177.3666667
1531,6/8/15 7:00,79.71666667,20.89,0.931666667,42.26666667,7.044666667,162.45
1532,6/8/15 8:00,82.49333333,20.37333333,0.793333333,38.975,7.2055,174.7833333
1533,6/8/15 9:00,84.12333333,20.10166667,0.833333333,36.295,7.251333333,172.55
1534,6/8/15 10:00,85.41,20.09333333,0.863333333,31.54166667,7.971666667,184.2833333
1535,6/8/15 11:00,84.18333333,21.11,1.455,31.785,8.759166667,194.1166667
1536,6/8/15 12:00,79.755,22.86833333,2.405,37.345,7.711166667,210.4166667
1537,6/8/15 13:00,75.23,24.1,2.326666667,37.29666667,7.4625,221.3666667
1538,6/8/15 14:00,67.95666667,25.46666667,2.64,34.60166667,8.236666667,223.75
1539,6/8/15 15:00,63.07457627,26.8220339,2.411864407,36.20847458,8.49,212.2033898
1540,6/8/15 16:00,58.89,28.27833333,2.576666667,37.615,8.639166667,218.35
1541,6/8/15 17:00,56.50333333,29.33,2.715,38.82333333,9.123666667,216
1542,6/8/15 18:00,54.73166667,30.03833333,2.868333333,38.965,9.710166667,218.0833333
1543,6/8/15 19:00,53.82666667,30.45666667,2.425,41.69,11.2515,195.45
1544,6/8/15 20:00,51.66,31.16166667,2.545,46.445,13.55716667,191.1833333
1545,6/8/15 21:00,50.26333333,31.46166667,2.831666667,46.33666667,11.40766667,199.7166667
1546,6/8/15 22:00,51.655,31.05166667,2.401666667,52.91666667,13.73666667,194.6333333
1547,6/8/15 23:00,54.58043478,29.92173913,1.839130435,57.25434783,17.39108696,191.9782609
1548,6/9/15 0:00,56.87,28.82,1.961666667,55.49333333,15.1275,188.55
1549,6/9/15 1:00,59.475,27.82333333,1.293333333,52.26833333,13.91416667,191.6333333
1550,6/9/15 2:00,60.45833333,27.33166667,1.623333333,49.31666667,15.135,198.3333333
1551,6/9/15 3:00,64.49,26.725,1.606666667,47.835,16.84683333,179.4666667
1552,6/9/15 4:00,71.65166667,26.115,1.625,42.52333333,14.94716667,190.7666667
1553,6/9/15 5:00,94.03833333,23.21,1.408333333,43.48833333,10.68416667,200.7333333
1554,6/9/15 6:00,100,22.17833333,1.11,37.14166667,11.02583333,241.7333333
1555,6/9/15 7:00,100,20.28333333,2.205,43.95666667,6.306333333,216.6
1556,6/9/15 8:00,100,20.02166667,1.426666667,44.335,5.537166667,210.5666667
1557,6/9/15 9:00,100,20.17333333,1.476666667,39.04333333,5.265166667,217.4666667
1558,6/9/15 10:00,100,20.185,1.016666667,33.50833333,5.0915,217.2
1559,6/9/15 11:00,100,20.90166667,1.251666667,28.44833333,4.981833333,207.2333333
1560,6/9/15 12:00,100,22.14333333,1.848333333,28.50166667,5.731833333,217.7666667
1561,6/9/15 13:00,100,22.77,1.796666667,27.38666667,6.281833333,228.5666667
1562,6/9/15 14:00,86.16833333,24.53333333,2.263333333,29.675,7.822,235.1833333
1563,6/9/15 15:00,73.43833333,26.11166667,2.276666667,30.89166667,9.863166667,246.2666667
1564,6/9/15 16:00,67.69166667,27.56166667,2.223333333,31.01166667,10.513,222.4
1565,6/9/15 17:00,64.36724138,28.6137931,2.106896552,32.95344828,11.16327586,211.8103448
1566,6/9/15 18:00,58.11,29.97666667,2.09,34.21333333,11.489,235.5
1567,6/9/15 19:00,52.25423729,30.93050847,1.620338983,38.95423729,10.32355932,255.1355932
1568,6/9/15 20:00,48.925,31.27,1.36,48.52333333,9.616333333,253.9833333
1569,6/9/15 21:00,46.02833333,31.605,1.183333333,54.25,9.6165,246.5833333
1570,6/9/15 22:00,41.41666667,31.50166667,1.385,53.755,9.909,241.2666667
1571,6/9/15 23:00,52.33666667,28.865,0.551666667,47.53166667,10.61,101.6
1572,6/10/15 0:00,66.15409836,26.48032787,0.083606557,29.84262295,11.35770492,63.32786885
1573,6/10/15 1:00,72.34,24.82166667,0.213333333,20.88666667,11.81816667,112.5666667
1574,6/10/15 2:00,77.19666667,24.95666667,1.513333333,42.80833333,11.12466667,179.75
1575,6/10/15 3:00,79.82711864,24.17288136,1.579661017,44.13389831,8.866949153,193
1576,6/10/15 4:00,78.14333333,23.70166667,1.018333333,43.18166667,7.5335,208.7333333
1577,6/10/15 5:00,80.26666667,23.00166667,0.776666667,42.44166667,6.892666667,196.0166667
1578,6/10/15 6:00,84.96666667,22.17166667,0.875,39.34833333,7.473,181.55
1579,6/10/15 7:00,88.34,21.71833333,0.771666667,35.30333333,8.344833333,201.7666667
1580,6/10/15 8:00,99.905,21.26666667,0.553333333,31.42333333,8.561666667,214.5666667
1581,6/10/15 9:00,100,20.81666667,0.46,25.69833333,8.295833333,178.0833333
1582,6/10/15 10:00,100,20.7,0.64,21.43833333,8.7,178.9
1583,6/10/15 11:00,100,21.73166667,0.613333333,22.72166667,8.777833333,221.8
1584,6/10/15 12:00,88.87666667,23.49166667,1.175,25.46,10.55166667,247.1333333
1585,6/10/15 13:00,73.20166667,25.72333333,0.778333333,27.43666667,13.3485,188.2166667
1586,6/10/15 14:00,64.22833333,28.16,0.933333333,33.795,14.62183333,185.9166667
1587,6/10/15 15:00,58.13833333,30.035,0.915,46.28333333,15.97733333,183.3666667
1588,6/10/15 16:00,53.43666667,31.12666667,1.13,54.24833333,16.8215,177.1
1589,6/10/15 17:00,50.27833333,31.66,0.68,57.16666667,16.721,153.65
1590,6/10/15 18:00,54.10833333,31.07833333,0.518333333,59.10333333,16.1395,113.3333333
1591,6/10/15 19:00,95.91833333,24.99833333,1.355,61.36333333,16.44733333,122.1333333
1592,6/10/15 20:00,63.63666667,30.06666667,0.571666667,50.26166667,12.44616667,97.6